Temperature
19 18 18 18 17 17 17 17 17 17 16 16 16 16 16 16 16 15 15 15 15 15 15 15 15 15 15 15 15 15 15 15 15 15 16 16 16 16 15 15 15 15 15
19 18 18 18 17 17 17 17 16 16 16 16 16 16 15 16 15 15 15 15 15 14 15 15 15 15 15 15 15 14 15 15 15 15 15 15 15 15 15 15 15 15 15
18 18 18 17 17 17 16 16 16 16 16 16 15 15 15 15 15 15 14 14 14 14 14 14 14 14 14 14 14 14 14 14 14 14 14 15 15 15 15 15 15 14 14
18 18 17 17 17 17 16 16 16 16 16 15 15 15 15 15 15 14 14 14 14 14 14 14 14 14 14 14 14 14 14 14 14 14 14 14 14 14 14 14 14 14 14
18 18 17 17 16 16 16 16 16 16 15 15 15 15 15 15 14 14 14 14 14 14 14 14 14 14 14 14 14 14 14 14 13 13 13 13 14 14 13 14 14 14 14
18 17 17 17 16 16 16 16 15 15 15 15 15 15 14 14 14 14 14 14 14 14 14 14 14 14 14 13 13 13 13 13 13 13 13 13 13 13 13 13 13 13 13
17 17 16 16 16 15 15 15 15 15 15 15 14 14 14 14 14 14 14 14 14 13 13 13 13 13 13 13 13 13 13 13 13 13 13 13 13 13 13 13 13 13 13
17 16 16 16 15 15 15 15 15 14 14 14 14 14 14 14 14 14 14 14 13 13 13 13 13 13 13 13 13 13 13 13 13 12 13 13 13 13 13 13 13 13 13
17 16 16 15 15 15 15 14 14 14 14 14 14 14 14 14 14 14 13 13 13 13 13 13 13 13 13 13 13 12 12 12 12 12 13 13 13 13 12 12 12 12 12
16 16 15 15 15 15 14 14 14 14 14 13 13 13 14 14 14 13 13 13 13 13 13 13 13 13 13 12 12 12 12 12 12 12 12 12 12 12 12 12 12 12 12
16 15 15 15 15 14 14 14 14 13 13 13 13 13 13 13 13 13 13 13 12 12 12 12 12 12 12 12 12 12 12 12 12 12 12 12 12 12 12 12 12 12 12
15 15 15 15 14 14 14 14 14 13 13 13 13 13 13 13 13 13 13 13 12 12 12 12 12 12 12 12 12 12 12 12 12 12 12 12 12 12 12 12 12 12 12
15 15 15 14 14 14 14 14 14 13 13 13 13 12 12 13 13 12 12 12 12 12 12 12 12 12 12 12 12 12 12 12 12 12 12 12 12 12 12 12 12 12 12
15 14 14 14 14 14 14 14 14 13 13 13 13 12 12 12 12 12 12 12 12 12 12 11 12 11 11 11 12 12 12 12 12 12 12 12 12 12 12 11 11 11 11
14 14 14 14 14 14 14 14 14 14 13 13 13 12 12 12 12 12 12 12 12 12 12 12 12 11 11 11 11 11 11 11 11 11 11 11 11 11 11 11 11 11 11
14 14 14 14 14 14 14 14 13 13 13 13 13 12 12 12 12 12 12 11 11 11 11 11 11 11 11 11 11 11 11 11 11 11 11 11 11 11 11 11 11 10 10
14 14 13 14 14 14 14 13 13 13 13 13 13 12 12 12 12 12 11 11 11 11 11 11 11 11 11 11 11 11 11 11 10 11 11 11 10 10 10 10 10 10 10
13 14 13 13 13 13 13 13 13 13 13 13 12 12 12 12 11 11 11 11 11 11 11 11 11 10 10 10 10 10 10 10 10 10 10 10 10 10 10 10 10 9 10
13 13 13 13 13 13 13 13 13 13 13 12 12 12 12 11 11 11 11 11 11 11 10 10 10 10 10 10 10 10 10 10 10 10 10 10 9 9 9 9 9 9 9
13 13 13 13 13 13 13 13 13 13 13 12 12 12 11 11 11 11 11 11 10 10 10 10 10 10 10 10 10 9 9 9 9 9 9 9 9 9 9 9 9 9 9
13 13 13 13 13 13 13 13 13 12 12 12 12 12 12 11 11 11 11 10 10 10 10 9 10 10 9 9 9 9 9 9 8 8 8 8 8 8 8 8 8 8 8
13 13 13 13 13 13 13 13 13 13 12 12 12 12 11 11 11 11 10 10 10 10 9 9 9 9 9 9 9 8 8 8 8 8 8 8 8 8 8 8 8 8 8
13 13 13 13 13 13 13 13 13 13 12 12 12 12 11 11 11 10 10 10 10 9 9 9 9 9 8 8 8 8 8 8 7 7 7 7 7 7 7 7 7 8 8
13 13 13 13 13 13 13 13 13 13 12 12 12 12 11 11 11 10 10 10 9 9 9 9 9 8 8 8 8 7 7 7 7 7 7 7 7 7 7 7 7 7 7
13 13 13 13 13 13 13 13 13 13 12 12 12 11 11 11 10 10 10 9 9 9 9 9 8 8 8 8 8 7 7 7 7 7 7 7 7 7 7 7 7 7 7
13 13 13 13 13 13 13 13 12 12 12 12 12 11 11 10 10 10 9 9 9 9 8 8 8 8 8 7 7 7 7 7 7 7 6 6 6 6 6 6 6 7 7
Wind_Speed
5 3 3 3 3 2 2 2 2 2 2 2 2 2 1 1 1 1 1 2 2 2 3 2 3 3 3 4 3 3 3 2 3 3 3 2 2 1 1 2 4 5 7
5 4 3 3 3 2 2 1 1 1 1 1 1 1 1 2 2 2 3 3 2 3 3 3 3 3 3 3 3 4 3 3 2 3 3 3 3 1 1 2 3 4 5
5 4 3 2 2 2 1 1 1 1 1 0 0 0 1 1 2 2 2 3 3 3 3 3 3 3 3 3 4 4 3 4 2 3 3 2 3 3 2 3 5 3 5
4 4 3 2 1 1 1 1 1 1 0 1 1 1 1 2 2 2 3 3 3 3 3 3 3 2 3 4 4 3 3 3 3 3 4 3 3 3 1 2 4 3 4
3 3 3 2 2 1 1 1 1 0 1 1 1 1 2 2 2 2 3 4 3 3 3 4 3 3 3 2 3 2 3 2 3 3 4 3 3 3 3 3 4 4 4
3 3 2 2 2 2 1 1 1 2 2 1 1 1 2 3 3 3 2 4 3 3 3 4 4 2 2 3 3 4 3 3 3 3 4 4 4 4 3 4 4 4 5
3 2 2 2 2 1 1 2 2 2 2 2 2 2 1 2 3 3 3 3 3 3 3 3 5 4 3 2 2 4 4 5 5 5 5 5 5 4 4 4 4 5 5
3 2 2 2 1 1 1 1 1 1 1 1 2 2 2 3 3 3 3 3 3 3 2 2 2 3 5 4 4 3 3 4 5 5 5 6 5 4 4 5 6 6 5
2 2 1 1 1 0 1 1 1 1 1 1 1 1 2 3 3 3 3 2 2 2 2 2 2 2 4 4 3 4 4 5 6 6 6 6 6 6 4 4 4 5 6
1 1 1 1 1 0 0 0 1 1 1 2 1 1 1 2 3 3 3 3 2 2 2 2 3 3 4 4 3 4 5 6 6 6 5 6 6 6 6 5 5 5 5
2 1 1 1 1 1 1 1 1 1 1 1 1 1 0 1 2 3 3 2 3 3 2 2 2 3 3 4 5 5 7 7 6 6 5 5 4 4 4 4 4 4 4
2 2 1 2 2 1 1 2 2 1 2 1 1 1 1 0 1 2 3 3 4 3 3 3 3 3 4 6 6 7 9 8 5 5 4 3 3 3 2 3 3 4 4
2 2 2 2 1 1 2 2 2 2 2 1 1 1 1 1 2 3 3 4 5 3 4 5 6 7 8 6 7 8 7 5 4 4 4 3 3 3 2 2 3 4 5
2 2 2 2 2 2 2 2 1 1 1 1 2 2 1 1 2 3 3 3 4 4 4 6 7 7 8 7 6 5 4 4 4 4 4 4 3 3 2 2 3 3 3
2 2 3 3 2 2 1 1 1 0 1 1 1 2 2 2 2 3 4 4 4 4 5 4 4 4 4 3 4 3 3 3 3 4 4 4 3 3 3 3 3 4 3
3 3 2 2 2 2 1 1 3 1 3 2 0 1 1 0 2 3 5 6 7 6 4 4 4 3 4 4 4 4 3 3 3 4 4 4 3 3 2 2 3 4 4
3 3 2 2 1 2 1 1 0 0 1 1 0 0 1 2 3 4 5 7 8 4 2 4 3 4 4 4 4 4 4 4 3 4 4 4 4 3 3 3 3 3 3
3 3 2 2 2 2 1 2 2 1 1 1 2 3 3 3 4 5 5 5 4 3 2 4 4 4 4 4 4 4 4 4 3 4 3 4 3 3 3 3 3 3 4
3 2 1 2 2 2 2 2 1 1 1 1 1 1 3 3 3 4 3 3 5 4 4 4 4 4 4 4 4 4 4 4 4 4 4 4 3 3 4 4 3 4 4
2 3 3 2 2 2 2 2 1 1 1 1 1 0 0 1 2 2 2 2 3 4 4 4 4 4 4 4 4 4 4 4 5 4 4 4 3 3 3 4 3 3 3
2 2 3 3 3 2 2 2 2 2 2 1 0 1 2 2 2 2 1 1 2 3 4 4 4 3 4 4 4 5 5 5 4 4 4 5 4 3 3 3 3 3 3
3 3 3 3 3 2 2 3 3 2 2 2 1 1 4 3 2 2 1 1 1 2 2 3 3 3 4 5 5 5 5 5 6 5 5 5 5 4 3 3 3 3 3
4 4 3 3 3 2 3 3 3 3 2 2 2 1 2 2 2 1 1 1 1 1 2 2 3 4 4 4 4 5 5 6 6 6 6 6 5 5 4 3 3 4 4
4 4 4 3 3 3 3 3 3 3 3 3 2 1 1 1 2 1 2 2 1 1 1 2 2 4 5 4 4 5 5 6 7 6 7 6 6 5 5 4 3 3 3
5 4 4 3 3 3 3 3 3 3 3 2 2 1 1 1 1 1 1 1 2 2 2 2 3 4 5 5 5 5 5 6 6 6 6 5 6 6 5 5 4 3 3
4 4 4 3 3 3 3 3 3 3 3 2 2 1 1 1 1 1 1 1 2 2 2 2 4 4 5 4 5 5 5 5 6 7 6 5 6 6 5 5 5 4 4
Wind_Direction
133 134 134 139 140 130 107 73 57 43 36 26 5 4 20 4 354 347 316 311 300 304 301 305 300 299 312 317 316 313 307 307 282 295 313 335 338 299 204 235 236 212 213
133 131 126 125 121 117 107 94 75 59 61 51 15 358 355 4 4 346 322 329 321 311 305 310 304 302 304 297 301 295 290 286 273 279 294 304 297 281 232 239 264 256 233
126 128 123 118 122 128 120 94 78 48 52 44 80 34 336 337 332 324 316 318 316 312 316 309 296 302 298 292 284 285 287 290 280 278 285 290 290 286 270 273 278 285 280
117 119 116 119 115 110 106 119 93 45 13 3 352 336 320 322 321 333 329 308 304 310 315 305 295 288 285 289 291 282 284 294 291 283 283 288 292 299 286 283 289 283 282
114 117 110 105 87 75 60 51 47 325 328 348 316 316 307 300 326 348 321 307 317 317 314 308 302 298 306 292 297 308 302 296 298 294 290 293 293 304 297 284 282 283 275
100 96 92 85 76 65 51 41 26 17 3 345 331 327 320 323 6 13 339 319 318 315 317 316 308 303 298 270 273 284 289 272 274 280 289 290 291 285 289 285 289 294 290
101 84 82 80 77 63 26 32 28 24 12 348 342 345 350 342 354 347 328 308 307 307 307 309 312 327 347 327 291 275 270 261 248 256 272 278 280 282 284 286 285 283 283
129 120 95 90 82 76 70 31 1 356 321 320 336 344 341 341 348 323 319 297 292 289 288 296 311 326 326 329 304 292 273 271 262 254 254 264 272 278 274 274 277 278 276
140 135 120 111 101 93 73 8 346 332 320 310 328 337 351 352 352 344 332 299 294 305 322 349 342 344 345 333 316 301 295 291 285 271 259 259 263 275 284 289 279 273 276
137 131 135 166 153 178 159 254 294 294 295 295 335 345 12 2 357 3 340 299 306 317 331 3 6 9 348 328 302 297 295 293 299 294 280 270 260 254 253 249 264 271 274
139 139 163 198 211 210 191 202 270 280 281 298 305 297 319 335 353 359 346 322 308 309 317 330 355 7 343 313 300 288 281 288 286 281 270 262 252 244 241 238 242 254 266
156 157 186 197 226 223 201 230 234 253 263 260 264 269 285 326 3 334 325 313 316 328 329 331 349 345 321 306 298 290 295 298 286 281 279 277 274 269 262 256 246 245 248
176 183 197 198 195 210 223 232 233 234 253 269 307 333 336 7 19 352 335 329 326 320 317 320 314 302 296 289 278 287 294 289 285 285 286 287 280 276 270 266 259 247 251
192 208 210 202 200 205 226 229 241 260 295 338 342 327 346 31 19 5 345 335 332 322 317 310 298 288 287 286 288 288 280 285 293 294 297 292 294 295 291 286 282 276 267
198 211 223 206 202 204 207 262 224 229 198 230 317 328 349 356 337 328 320 320 324 332 320 297 291 289 298 302 301 297 294 298 304 302 301 300 296 298 308 319 314 312 293
198 212 232 220 199 215 174 74 40 92 128 127 138 322 18 5 310 326 333 325 315 315 310 295 303 309 317 320 318 316 318 322 317 311 310 312 311 304 306 320 319 311 303
217 222 238 250 233 226 196 180 181 83 127 163 187 205 226 267 307 321 321 321 313 316 309 309 320 324 320 319 324 328 329 327 327 325 324 322 316 310 311 311 304 304 305
232 218 228 246 252 249 237 222 219 222 230 274 226 223 228 259 288 302 319 333 319 312 303 313 317 321 322 326 333 333 331 328 329 325 328 329 326 319 318 310 309 313 311
245 238 244 268 267 253 251 251 241 225 240 265 271 235 239 254 279 294 312 307 316 329 332 330 328 331 333 335 338 336 336 331 335 328 326 328 327 325 320 319 321 317 309
245 229 223 255 265 261 259 268 277 270 246 251 271 223 176 263 277 279 276 293 316 323 327 330 329 331 339 341 346 341 339 341 340 337 336 331 329 322 319 316 318 318 313
253 232 214 242 256 263 282 286 284 286 286 263 276 188 193 242 264 283 296 299 306 320 333 326 323 335 350 353 355 350 349 347 344 341 336 327 325 325 325 320 315 311 307
252 230 219 237 256 272 281 275 268 265 270 277 251 189 196 233 255 270 261 265 281 296 321 331 342 9 13 5 2 353 349 352 350 344 337 333 330 323 314 315 322 322 315
251 247 235 233 238 234 253 260 267 270 268 253 249 240 216 254 279 291 280 290 305 319 331 341 353 4 23 17 6 8 3 354 344 341 334 327 324 320 315 311 310 317 322
257 257 251 248 246 242 250 258 262 269 280 287 280 262 250 258 284 322 346 353 348 348 358 358 0 8 20 17 17 28 20 0 346 339 334 324 317 315 314 309 301 297 300
256 259 259 257 255 259 261 265 269 271 271 281 283 277 278 282 295 307 357 3 356 353 355 14 19 22 24 25 26 22 13 2 356 345 329 321 312 308 307 306 304 303 291
265 267 265 260 260 259 260 263 268 277 276 271 279 281 273 272 280 319 350 355 350 359 9 20 19 27 24 21 30 31 15 356 348 339 327 314 308 307 310 305 299 295 294
Height
1504 1504 1504 1505 1505 1505 1505 1505 1505 1504 1504 1503 1503 1502 1501 1501 1500 1500 1499 1499 1499 1499 1498 1498 1497 1497 1497 1497 1497 1498 1498 1498 1497 1497 1498 1497 1497 1496 1496 1495 1494 1493 1493
1502 1503 1504 1504 1504 1504 1504 1503 1503 1503 1503 1502 1502 1501 1500 1499 1499 1498 1498 1498 1497 1497 1496 1496 1495 1495 1494 1494 1494 1495 1495 1495 1495 1494 1494 1494 1494 1493 1493 1492 1491 1491 1490
1502 1502 1502 1503 1503 1503 1503 1502 1502 1501 1501 1501 1500 1499 1498 1498 1497 1497 1496 1496 1496 1495 1495 1494 1493 1493 1492 1492 1491 1491 1492 1492 1492 1491 1491 1491 1491 1490 1490 1489 1488 1487 1487
1501 1501 1501 1501 1501 1501 1501 1501 1500 1500 1499 1499 1498 1497 1497 1496 1495 1495 1495 1494 1494 1493 1492 1492 1491 1490 1489 1489 1488 1488 1488 1488 1488 1488 1487 1487 1487 1487 1487 1485 1484 1484 1483
1501 1500 1500 1500 1500 1500 1500 1499 1499 1498 1498 1497 1496 1496 1495 1494 1494 1493 1492 1492 1491 1491 1490 1490 1489 1488 1487 1486 1486 1485 1484 1485 1485 1484 1484 1484 1484 1484 1483 1483 1482 1480 1479
1500 1499 1499 1499 1499 1499 1498 1498 1498 1497 1496 1495 1495 1494 1493 1493 1492 1491 1490 1490 1489 1488 1488 1487 1486 1485 1485 1484 1484 1483 1483 1482 1481 1481 1481 1481 1480 1481 1480 1480 1478 1477 1475
1498 1499 1499 1498 1498 1498 1498 1497 1496 1495 1495 1494 1493 1492 1491 1490 1490 1489 1488 1488 1487 1486 1485 1484 1484 1483 1483 1482 1481 1481 1480 1480 1479 1479 1478 1477 1477 1477 1476 1476 1475 1474 1472
1497 1497 1497 1497 1497 1496 1496 1495 1495 1494 1494 1493 1492 1490 1489 1488 1488 1487 1486 1485 1485 1484 1483 1482 1481 1480 1480 1479 1478 1477 1477 1476 1476 1475 1474 1474 1473 1473 1473 1472 1471 1470 1469
1495 1495 1495 1495 1495 1495 1494 1494 1493 1492 1492 1491 1490 1489 1488 1486 1486 1485 1484 1483 1483 1482 1481 1480 1479 1478 1477 1476 1475 1474 1473 1473 1473 1472 1471 1470 1470 1469 1469 1468 1467 1466 1464
1492 1493 1493 1493 1493 1493 1493 1492 1492 1491 1490 1490 1489 1488 1486 1485 1484 1483 1482 1482 1481 1480 1480 1478 1477 1476 1475 1474 1473 1471 1470 1469 1469 1468 1467 1467 1466 1465 1465 1464 1463 1462 1460
1491 1491 1491 1492 1492 1492 1492 1491 1490 1490 1489 1488 1487 1486 1485 1484 1483 1482 1481 1480 1479 1479 1478 1477 1476 1475 1473 1472 1470 1469 1468 1467 1466 1465 1464 1463 1462 1461 1461 1460 1459 1458 1457
1489 1489 1489 1490 1490 1490 1490 1489 1489 1488 1488 1487 1486 1485 1484 1483 1482 1481 1480 1479 1478 1477 1476 1475 1474 1473 1471 1470 1468 1467 1466 1465 1464 1463 1462 1461 1460 1459 1457 1456 1456 1455 1454
1486 1486 1487 1487 1488 1488 1488 1488 1487 1487 1486 1486 1485 1484 1483 1482 1481 1480 1479 1477 1476 1475 1474 1473 1472 1471 1469 1468 1466 1465 1464 1463 1461 1460 1459 1458 1457 1456 1455 1453 1452 1451 1450
1484 1484 1485 1485 1485 1486 1486 1486 1486 1486 1485 1485 1484 1483 1482 1481 1479 1478 1477 1476 1474 1473 1472 1471 1470 1469 1467 1466 1464 1463 1461 1460 1459 1458 1457 1456 1454 1453 1452 1451 1449 1448 1446
1481 1482 1483 1484 1484 1484 1484 1485 1484 1484 1484 1483 1483 1482 1481 1479 1478 1478 1476 1474 1473 1472 1470 1469 1468 1466 1465 1464 1462 1461 1459 1458 1456 1455 1454 1453 1452 1450 1449 1448 1446 1444 1443
1479 1480 1481 1482 1482 1482 1482 1483 1483 1483 1482 1482 1481 1481 1479 1479 1477 1476 1475 1473 1472 1470 1469 1467 1466 1465 1464 1462 1460 1459 1457 1456 1454 1453 1452 1450 1449 1448 1446 1445 1443 1442 1440
1478 1479 1480 1480 1480 1480 1481 1481 1481 1481 1481 1480 1480 1479 1478 1477 1476 1474 1473 1472 1470 1469 1467 1466 1465 1463 1462 1460 1458 1456 1455 1454 1452 1451 1449 1448 1447 1445 1444 1442 1440 1439 1437
1476 1477 1478 1478 1479 1479 1479 1479 1479 1479 1478 1478 1478 1477 1476 1475 1474 1472 1471 1470 1468 1467 1466 1465 1463 1462 1460 1458 1456 1455 1453 1451 1450 1448 1447 1446 1444 1443 1442 1440 1438 1437 1435
1475 1476 1476 1477 1478 1478 1478 1478 1478 1477 1477 1476 1476 1475 1474 1473 1472 1471 1470 1469 1467 1466 1465 1463 1462 1460 1458 1456 1454 1453 1451 1449 1448 1446 1445 1443 1442 1441 1439 1438 1436 1434 1433
1474 1474 1475 1476 1476 1476 1476 1476 1476 1475 1475 1474 1474 1473 1472 1471 1470 1469 1468 1467 1466 1465 1463 1462 1460 1458 1457 1454 1452 1451 1449 1447 1445 1444 1442 1441 1439 1438 1437 1435 1434 1432 1431
1473 1473 1473 1474 1475 1475 1474 1474 1474 1474 1473 1473 1472 1471 1471 1470 1469 1468 1467 1465 1464 1463 1461 1460 1459 1457 1455 1453 1451 1449 1447 1445 1443 1442 1440 1438 1437 1435 1434 1433 1431 1430 1429
1471 1471 1472 1473 1473 1473 1473 1473 1473 1472 1472 1471 1470 1470 1469 1468 1467 1466 1465 1464 1463 1461 1460 1459 1457 1455 1453 1451 1449 1447 1445 1443 1441 1439 1437 1435 1433 1432 1431 1430 1429 1428 1427
1469 1470 1470 1471 1471 1472 1471 1471 1471 1471 1470 1470 1469 1468 1467 1466 1465 1465 1463 1462 1461 1460 1458 1457 1455 1453 1451 1449 1447 1445 1443 1441 1438 1436 1434 1432 1430 1429 1428 1427 1427 1426 1425
1468 1468 1468 1469 1469 1469 1469 1469 1469 1469 1469 1468 1467 1466 1465 1464 1463 1462 1462 1461 1459 1458 1456 1455 1453 1451 1449 1447 1445 1443 1441 1438 1436 1434 1431 1429 1428 1427 1426 1425 1424 1423 1423
1466 1466 1467 1467 1467 1467 1467 1467 1467 1467 1466 1466 1465 1464 1463 1462 1461 1460 1459 1458 1457 1455 1454 1452 1450 1449 1447 1445 1443 1441 1438 1436 1433 1431 1429 1427 1425 1424 1424 1423 1422 1421 1421
1463 1464 1464 1464 1464 1464 1464 1464 1464 1464 1464 1463 1462 1462 1461 1460 1459 1458 1457 1455 1454 1452 1451 1449 1448 1446 1444 1442 1440 1438 1436 1434 1431 1429 1427 1425 1423 1422 1421 1420 1420 1419 1419